Location: Arundel
(45.9667°N, 74.6189°W)
Time: 20:59:33
(UTC+00:00)

N. Korean satellite - Visible Passes

Search period start: 28 November 2022 00:00
Search period end: 08 December 2022 00:00
Orbit: 422 x 454 km, 97.3° (Epoch: 28 November)

Date Brightness Start Highest point End Pass type
(mag) Time Alt. Az. Time Alt. Az. Time Alt. Az.
28 Nov 6.3 10:30:30 10° N 10:33:56 74° WNW 10:37:20 10° SSW visible
28 Nov 10.0 22:36:55 10° WSW 22:38:05 11° W 22:39:17 10° WNW visible
29 Nov 8.2 09:52:04 10° NNE 09:55:12 33° E 09:58:19 10° SSE visible
29 Nov 8.0 11:25:13 10° NNW 11:27:28 17° WNW 11:29:42 10° WSW visible
29 Nov 8.5 21:56:03 10° SSW 21:59:07 33° W 22:02:14 10° NNW visible
30 Nov 9.9 09:14:58 10° ENE 09:16:13 12° E 09:17:28 10° ESE visible
30 Nov 6.6 10:45:42 10° N 10:49:00 46° WNW 10:52:15 10° SSW visible
01 Dec 7.2 10:06:56 10° NNE 10:10:16 52° E 10:13:36 10° S visible
01 Dec 8.4 11:41:08 10° NW 11:42:21 12° WNW 11:43:33 10° W visible
01 Dec 9.3 22:11:31 10° SSW 22:14:11 22° W 22:16:54 10° NW visible
02 Dec 9.3 09:28:58 10° NE 09:31:18 17° E 09:33:37 10° SE visible
02 Dec 7.2 11:00:51 10° N 11:03:53 30° WNW 11:06:53 10° SW visible
03 Dec 6.4 10:21:45 10° NNE 10:25:10 84° ESE 10:28:33 10° SSW visible
03 Dec 9.7 22:27:09 10° SW 22:29:08 15° W 22:31:09 10° NW visible
04 Dec 8.7 09:43:18 10° NE 09:46:12 25° E 09:49:03 10° SSE visible
04 Dec 7.7 11:15:58 10° NNW 11:18:34 21° WNW 11:21:09 10° WSW visible
04 Dec 7.8 21:46:47 10° S 21:50:02 43° W 21:53:19 10° NNW visible
05 Dec 6.3 10:36:30 10° N 10:39:53 61° WNW 10:43:12 10° SSW visible
06 Dec 7.8 09:57:42 10° NNE 10:00:55 38° E 10:04:04 10° SSE visible
06 Dec 8.1 11:31:10 10° NNW 11:33:05 14° WNW 11:35:00 10° W visible
06 Dec 8.8 22:01:44 10° SSW 22:04:42 28° W 22:07:43 10° NW visible
07 Dec 9.7 09:20:01 10° ENE 09:21:41 13° E 09:23:21 10° ESE visible
07 Dec 6.8 10:51:12 10° N 10:54:24 39° WNW 10:57:32 10° SW visible
